Home   Weather   Springfield   Past weeks

Flag for USA Past Weather in Springfield, Massachusetts, USA — Yesterday and Last 2 Weeks

Now
77 °F

Partly sunny.


Feels Like: 79 °F
Forecast: 62 / 84 °F
Wind: 8 mph from South

Location: Barnes Municipal Airport

Current Time: Aug 31, 2016 at 7:43:37 PM

Latest Report: Aug 31, 2016 at 6:53 PM


Visibility: 10 mi

Pressure: 29.86 "Hg

Humidity: 71%

Dew Point: 67 °F

Location of SpringfieldLocation

Past Weather in Springfield — Graph

°F

Springfield Temperature Yesterday

Maximum temperature yesterday: 85 °F (at 3:53 PM)
Minimum temperature yesterday: 53 °F (at 5:53 AM)
Average temperature yesterday: 69 °F

High & Low Weather Summary for the Past Weeks

 TemperatureHumidityPressure
High91 °F (Aug 26, 3:53 PM)100% (Aug 22, 4:53 AM)30.31 "Hg (Aug 22, 4:53 AM)
Low49 °F (Aug 23, 5:53 AM)31% (Aug 29, 1:53 PM)29.78 "Hg (Aug 22, 1:53 AM)
Average73 °F70%30.04 "Hg
* Reported Aug 16 5:53 PM — Aug 31 5:53 PM, Springfield, Weather by CustomWeather, © 2016

Note: Actual official high and low records may vary slightly from our data, if they occured in-between our weather recording intervals... More about our weather records

Advertising

Springfield Weather History for the Previous 24 Hours

Scroll right to see more
 ConditionsComfort  
Time TempWeatherWind HumidityBarometerVisibility
5:53 PM
Wed, Aug 31
79 °FScattered clouds.7 mph65%29.87 "Hg10 mi
4:53 PM79 °FPassing clouds.8 mph65%29.87 "Hg10 mi
3:53 PM80 °FSunny.7 mph62%29.88 "Hg10 mi
2:53 PM80 °FPartly sunny.6 mph60%29.90 "Hg10 mi
1:53 PM80 °FSunny.8 mph60%29.91 "Hg10 mi
12:53 PM77 °FLight rain. Mostly cloudy.6 mph74%29.94 "Hg10 mi
11:53 AM76 °FPartly sunny.6 mph74%29.95 "Hg10 mi
10:53 AM75 °FSunny.3 mph74%29.97 "Hg10 mi
9:53 AM73 °FSunny.5 mph76%29.97 "Hg10 mi
8:53 AM68 °FSunny.3 mph84%29.98 "Hg10 mi
7:53 AM63 °FSunny.No wind90%29.98 "Hg10 mi
6:53 AM60 °FClear.5 mph96%29.99 "Hg10 mi
5:53 AM57 °FClear.No wind100%29.99 "Hg10 mi
4:53 AM58 °FClear.No wind100%29.99 "Hg10 mi
3:53 AM60 °FClear.3 mph96%30.00 "Hg10 mi
2:53 AM59 °FClear.3 mph96%30.02 "Hg10 mi
1:53 AM61 °FClear.3 mph93%30.03 "Hg10 mi
12:53 AM62 °FClear.No wind90%30.03 "Hg10 mi
11:53 PM
Tue, Aug 30
61 °FClear.No wind93%30.03 "Hg10 mi
10:53 PM64 °FClear.No wind84%30.05 "Hg10 mi
9:53 PM67 °FClear.No wind76%30.04 "Hg10 mi
8:53 PM69 °FClear.3 mph70%30.04 "Hg10 mi
7:53 PM72 °FSunny.No wind61%30.03 "Hg10 mi
Weather by CustomWeather, © 2016

See weather overviewHow to use our weather pages